Regional Weather Roundup
Issued by NWS

Home | Current Version | Previous Version | Graphics & Text | Print | Product List | Glossary On
Versions: 1 2 3 4 5 6 7 8 9 10 11 12 13 14 15 16 17 18 19 20 21 22 23 24 25 26 27 28 29 30 31 32 33 34 35 36 37 38 39 40 41 42 43 44 45 46 47 48 49 50
000
ASUS43 KOAX 210302
RWRNE

WEATHER ROUNDUP FOR NEBRASKA
NATIONAL WEATHER SERVICE OMAHA NE
1000 PM CDT SUN APR 20 2014

NOTES: SATELLITE DATA IS BEING USED TO AUGMENT CLOUD COVER ABOVE
       12000 FEET.
       "FAIR" INDICATES FEW OR NO CLOUDS BELOW 12,000 FEET WITH NO
       SIGNIFICANT WEATHER AND/OR OBSTRUCTIONS TO VISIBILITY.

  * THESE STATIONS DO NOT REPORT WEATHER SUCH AS RAIN...SNOW OR FOG.

NEZ001>004-019>022-054>056-210400-
NEBRASKA PANHANDLE

CITY           SKY/WX    TMP DP  RH WIND       PRES   REMARKS
SCOTTSBLUFF    CLEAR     59  38  45 NE17      30.03R
ALLIANCE       CLEAR     54  37  52 N13       30.03R
CHADRON        CLEAR     54  33  45 NE7       30.06R
KIMBALL        CLEAR     56  27  33 N10       30.05R
SIDNEY         PTCLDY    62  30  29 NE12      30.03R
$$

NEZ057>060-069>072-079>082-210400-
SOUTHWEST NEBRASKA

CITY           SKY/WX    TMP DP  RH WIND       PRES   REMARKS
NORTH PLATTE   PTCLDY    55  46  71 CALM      29.93R
IMPERIAL       PTCLDY    59  44  57 CALM      29.95R
LEXINGTON      CLOUDY    60  52  74 S6        29.95R
MCCOOK         CLOUDY    61  52  72 S8        29.96R
OGALLALA       PTCLDY    55  41  59 CALM      29.96R
$$

NEZ005>010-023>029-035>040-094-210400-
NORTH CENTRAL NEBRASKA

CITY           SKY/WX    TMP DP  RH WIND       PRES   REMARKS
VALENTINE      PTCLDY    66  38  35 N22G31    29.93R
AINSWORTH      MOCLDY    64  52  65 CALM      29.94R
BROKEN BOW     PTCLDY    54  47  77 CALM      29.92R
O`NEILL        PTCLDY    65  47  53 S6        29.90R
ORD            MOCLDY    67  51  56 S10       29.90R
THEDFORD       CLOUDY    68  47  46 SW3       29.94R
$$

NEZ041-046>049-061>064-073>077-083>087-210400-
SOUTH CENTRAL NEBRASKA

CITY           SKY/WX    TMP DP  RH WIND       PRES   REMARKS
GRAND ISLAND   CLOUDY    66  54  65 S14       29.93S
AURORA         CLOUDY    67  54  64 S12       29.95R
HASTINGS       CLOUDY    65  53  65 S9        29.94S
HEBRON         CLOUDY    63  52  66 S8        29.97R
HOLDREGE       CLOUDY    62  53  72 S8        29.95R
KEARNEY *      CLOUDY    63  54  72 S8        29.95R
YORK           CLOUDY    64  55  72 S12       29.96R
$$

NEZ011>018-030>034-042>045-210400-
NORTHEAST NEBRASKA

CITY           SKY/WX    TMP DP  RH WIND       PRES   REMARKS
NORFOLK        CLOUDY    65  53  65 S12       29.92R
ALBION         CLOUDY    63  52  66 S5        29.93R
BLAIR          LGT RAIN  64  55  74 S10       29.96R
COLUMBUS *     CLOUDY    66  54  63 S17       29.94S
FREMONT        CLOUDY    64  55  72 SE6       29.96R
TEKAMAH        CLOUDY    66  54  65 SE12      29.93R
$$

NEZ050>053-065>068-078-088>093-210400-
SOUTHEAST NEBRASKA

CITY           SKY/WX    TMP DP  RH WIND       PRES   REMARKS
LINCOLN        CLOUDY    64  58  80 S6        29.97R
OMAHA EPPLEY   LGT RAIN  64  57  78 S8        29.96R
BEATRICE       MOCLDY    66  53  63 S8        29.98R
NEBRASKA CITY  MOCLDY    61  61 100 S6        30.00R
PLATTSMOUTH    CLOUDY    63  57  81 SE9       29.98R
$$

NEZ044-045-051>053-067-210400-
OMAHA AREA

CITY           SKY/WX    TMP DP  RH WIND       PRES   REMARKS
OMAHA EPPLEY   LGT RAIN  64  57  78 S8        29.96R
BLAIR          LGT RAIN  64  55  74 S10       29.96R
FREMONT        CLOUDY    64  55  72 SE6       29.96R
MILLARD        LGT RAIN  63  57  82 CALM      29.96R
OFFUTT AFB     LGT RAIN  62  62  99 SE7       29.97R
PLATTSMOUTH    CLOUDY    63  57  81 SE9       29.98R
WAHOO          MOCLDY    62  56  79 S12       29.95R
$$



USA.gov is the U.S. government's official web portal to all federal, state and local government web resources and services.